Time,TemperatureF,DewpointF,PressureIn,WindDirection,WindDirectionDegrees,WindSpeedMPH,WindSpeedGustMPH,Humidity,HourlyPrecipIn,Conditions,Clouds,dailyrainin,SolarRadiationWatts/m^2,SoftwareType,DateUTC
2013-04-10 01:06:00,19.1,17.0,30.23,West,267,5.0,15.0,90,0.00,,,0.00,0,weatherlink.com 1.10,2013-04-10 06:06:00,
2013-04-10 01:21:00,19.2,17.0,30.27,NW,320,7.0,13.0,90,0.00,,,0.00,0,weatherlink.com 1.10,2013-04-10 06:21:00,
2013-04-10 01:36:00,19.4,17.0,30.26,West,277,4.0,12.0,90,0.00,,,0.00,0,weatherlink.com 1.10,2013-04-10 06:36:00,
2013-04-10 01:51:00,19.5,17.0,30.24,NW,324,3.0,10.0,90,0.00,,,0.00,0,weatherlink.com 1.10,2013-04-10 06:51:00,
2013-04-10 02:06:00,19.5,17.0,30.25,NNW,343,6.0,14.0,90,0.00,,,0.00,0,weatherlink.com 1.10,2013-04-10 07:06:00,
2013-04-10 02:21:00,19.5,17.0,30.25,NW,323,7.0,15.0,89,0.00,,,0.00,0,weatherlink.com 1.10,2013-04-10 07:21:00,
2013-04-10 02:36:00,19.7,17.0,30.25,WNW,290,4.0,17.0,89,0.00,,,0.00,0,weatherlink.com 1.10,2013-04-10 07:36:00,
2013-04-10 02:51:00,19.8,17.0,30.24,NW,309,4.0,14.0,89,0.00,,,0.00,0,weatherlink.com 1.10,2013-04-10 07:51:00,
2013-04-10 03:06:00,19.8,17.0,30.23,NW,319,3.0,12.0,89,0.00,,,0.00,0,weatherlink.com 1.10,2013-04-10 08:06:00,
2013-04-10 03:21:00,19.8,17.0,30.21,NW,306,4.0,15.0,89,0.00,,,0.00,0,weatherlink.com 1.10,2013-04-10 08:21:00,
2013-04-10 03:36:00,19.9,17.0,30.24,NNW,336,4.0,14.0,89,0.00,,,0.00,0,weatherlink.com 1.10,2013-04-10 08:36:00,
2013-04-10 03:51:00,20.1,17.0,30.24,WNW,284,7.0,12.0,89,0.00,,,0.00,0,weatherlink.com 1.10,2013-04-10 08:51:00,
2013-04-10 04:06:00,20.2,17.0,30.23,NNW,336,4.0,10.0,88,0.00,,,0.00,0,weatherlink.com 1.10,2013-04-10 09:06:00,
2013-04-10 04:21:00,20.3,17.0,30.25,NNW,340,8.0,12.0,88,0.00,,,0.00,0,weatherlink.com 1.10,2013-04-10 09:21:00,
2013-04-10 04:36:00,20.4,17.0,30.24,West,281,4.0,10.0,88,0.00,,,0.00,0,weatherlink.com 1.10,2013-04-10 09:36:00,
2013-04-10 04:51:00,20.4,17.0,30.20,NW,311,0.0,11.0,88,0.00,,,0.00,0,weatherlink.com 1.10,2013-04-10 09:51:00,
2013-04-10 05:06:00,20.4,17.0,30.18,NNW,339,5.0,16.0,88,0.00,,,0.00,0,weatherlink.com 1.10,2013-04-10 10:06:00,
2013-04-10 05:21:00,20.3,17.0,30.21,West,277,5.0,14.0,87,0.00,,,0.00,0,weatherlink.com 1.10,2013-04-10 10:21:00,
2013-04-10 05:36:00,20.6,17.0,30.23,NW,326,6.0,16.0,87,0.00,,,0.00,0,weatherlink.com 1.10,2013-04-10 10:36:00,
2013-04-10 05:51:00,20.7,17.0,30.24,WNW,294,0.0,11.0,87,0.00,,,0.00,0,weatherlink.com 1.10,2013-04-10 10:51:00,
2013-04-10 06:06:00,20.9,17.0,30.23,NW,319,9.0,12.0,86,0.00,,,0.00,0,weatherlink.com 1.10,2013-04-10 11:06:00,
2013-04-10 06:21:00,21.0,18.0,30.25,NW,325,0.0,15.0,86,0.00,,,0.00,0,weatherlink.com 1.10,2013-04-10 11:21:00,
2013-04-10 06:51:00,20.8,17.0,30.25,NW,320,4.0,12.0,86,0.00,,,0.00,0,weatherlink.com 1.10,2013-04-10 11:51:00,
2013-04-10 07:06:00,20.3,17.0,30.24,West,267,9.0,17.0,86,0.00,,,0.00,0,weatherlink.com 1.10,2013-04-10 12:06:00,
2013-04-10 07:22:00,19.9,17.0,30.26,WNW,297,6.0,16.0,87,0.00,,,0.00,5,weatherlink.com 1.10,2013-04-10 12:22:00,
2013-04-10 07:37:00,20.1,17.0,30.25,WNW,298,7.0,16.0,87,0.00,,,0.00,26,weatherlink.com 1.10,2013-04-10 12:37:00,
2013-04-10 07:51:00,20.2,17.0,30.22,NW,304,7.0,17.0,86,0.00,,,0.00,49,weatherlink.com 1.10,2013-04-10 12:51:00,
2013-04-10 08:07:00,20.4,17.0,30.23,West,279,5.0,16.0,86,0.00,,,0.00,72,weatherlink.com 1.10,2013-04-10 13:07:00,
2013-04-10 08:22:00,20.7,17.0,30.24,WNW,286,7.0,16.0,86,0.00,,,0.00,83,weatherlink.com 1.10,2013-04-10 13:22:00,
2013-04-10 08:37:00,20.9,17.0,30.25,WNW,295,6.0,21.0,85,0.00,,,0.00,114,weatherlink.com 1.10,2013-04-10 13:37:00,
2013-04-10 08:52:00,21.2,17.0,30.24,WNW,286,2.0,16.0,85,0.00,,,0.00,149,weatherlink.com 1.10,2013-04-10 13:52:00,
2013-04-10 09:07:00,21.1,17.0,30.25,West,275,7.0,17.0,85,0.00,,,0.00,230,weatherlink.com 1.10,2013-04-10 14:07:00,
2013-04-10 09:22:00,21.8,18.0,30.25,WNW,300,6.0,18.0,84,0.00,,,0.00,202,weatherlink.com 1.10,2013-04-10 14:22:00,
2013-04-10 09:37:00,22.4,18.0,30.24,NW,316,5.0,16.0,83,0.00,,,0.00,367,weatherlink.com 1.10,2013-04-10 14:37:00,
2013-04-10 09:52:00,23.7,19.0,30.24,NW,305,6.0,20.0,82,0.00,,,0.00,420,weatherlink.com 1.10,2013-04-10 14:52:00,
2013-04-10 10:07:00,24.3,20.0,30.25,West,277,9.0,15.0,82,0.00,,,0.00,443,weatherlink.com 1.10,2013-04-10 15:07:00,
2013-04-10 10:37:00,25.1,20.0,30.24,WNW,298,7.0,16.0,81,0.00,,,0.00,394,weatherlink.com 1.10,2013-04-10 15:37:00,
2013-04-10 10:52:00,25.8,21.0,30.25,NW,309,9.0,18.0,81,0.00,,,0.00,345,weatherlink.com 1.10,2013-04-10 15:52:00,
2013-04-10 11:07:00,25.7,21.0,30.25,NW,307,0.0,11.0,83,0.00,,,0.00,316,weatherlink.com 1.10,2013-04-10 16:07:00,
2013-04-10 11:22:00,26.1,21.0,30.26,West,266,6.0,13.0,82,0.00,,,0.00,341,weatherlink.com 1.10,2013-04-10 16:22:00,
2013-04-10 11:37:00,26.2,21.0,30.24,WNW,303,3.0,17.0,82,0.00,,,0.00,367,weatherlink.com 1.10,2013-04-10 16:37:00,
2013-04-10 11:52:00,27.1,22.0,30.23,NNW,328,4.0,15.0,81,0.00,,,0.00,483,weatherlink.com 1.10,2013-04-10 16:52:00,
2013-04-10 12:22:00,27.6,23.0,30.23,NE,51,6.0,15.0,81,0.00,,,0.00,438,weatherlink.com 1.10,2013-04-10 17:22:00,
2013-04-10 12:37:00,27.4,22.0,30.21,West,275,0.0,15.0,81,0.00,,,0.00,452,weatherlink.com 1.10,2013-04-10 17:37:00,
2013-04-10 12:52:00,27.7,22.0,30.22,WNW,301,8.0,16.0,80,0.00,,,0.00,385,weatherlink.com 1.10,2013-04-10 17:52:00,
2013-04-10 13:07:00,28.2,23.0,30.21,NW,308,1.0,13.0,82,0.00,,,0.00,378,weatherlink.com 1.10,2013-04-10 18:07:00,
2013-04-10 13:22:00,28.6,23.0,30.21,NW,313,1.0,13.0,78,0.00,,,0.00,346,weatherlink.com 1.10,2013-04-10 18:22:00,
2013-04-10 13:37:00,28.7,23.0,30.20,NW,317,0.0,11.0,79,0.00,,,0.00,388,weatherlink.com 1.10,2013-04-10 18:37:00,
2013-04-10 13:52:00,29.0,23.0,30.19,NNW,339,1.0,15.0,78,0.00,,,0.00,360,weatherlink.com 1.10,2013-04-10 18:52:00,
2013-04-10 14:07:00,29.0,24.0,30.20,NNW,338,0.0,12.0,80,0.00,,,0.00,325,weatherlink.com 1.10,2013-04-10 19:07:00,
2013-04-10 14:22:00,28.6,23.0,30.20,WNW,301,0.0,14.0,79,0.00,,,0.00,267,weatherlink.com 1.10,2013-04-10 19:22:00,
2013-04-10 14:37:00,28.5,23.0,30.19,West,275,0.0,10.0,80,0.00,,,0.00,290,weatherlink.com 1.10,2013-04-10 19:37:00,
2013-04-10 14:52:00,29.0,24.0,30.19,North,355,3.0,11.0,80,0.00,,,0.00,267,weatherlink.com 1.10,2013-04-10 19:52:00,
2013-04-10 15:07:00,28.9,24.0,30.19,NW,316,6.0,10.0,81,0.00,,,0.00,230,weatherlink.com 1.10,2013-04-10 20:07:00,
2013-04-10 15:22:00,28.7,24.0,30.18,WNW,296,0.0,12.0,82,0.00,,,0.00,197,weatherlink.com 1.10,2013-04-10 20:22:00,
2013-04-10 15:37:00,28.7,25.0,30.17,NNW,338,7.0,11.0,84,0.00,,,0.00,197,weatherlink.com 1.10,2013-04-10 20:37:00,
2013-04-10 15:52:00,27.8,24.0,30.16,NW,321,3.0,13.0,84,0.00,,,0.00,169,weatherlink.com 1.10,2013-04-10 20:52:00,
2013-04-10 16:07:00,28.3,24.0,30.16,NNW,348,3.0,13.0,85,0.00,,,0.00,174,weatherlink.com 1.10,2013-04-10 21:07:00,
2013-04-10 16:22:00,28.2,24.0,30.15,NW,315,0.0,12.0,83,0.00,,,0.00,141,weatherlink.com 1.10,2013-04-10 21:22:00,
2013-04-10 16:37:00,27.9,23.0,30.14,NW,317,9.0,12.0,83,0.00,,,0.00,156,weatherlink.com 1.10,2013-04-10 21:37:00,
2013-04-10 16:52:00,28.0,24.0,30.14,WNW,285,7.0,14.0,83,0.00,,,0.00,128,weatherlink.com 1.10,2013-04-10 21:52:00,
2013-04-10 17:08:00,28.0,24.0,30.13,West,262,5.0,11.0,85,0.00,,,0.00,128,weatherlink.com 1.10,2013-04-10 22:08:00,
2013-04-10 17:22:00,28.1,24.0,30.12,NW,325,1.0,15.0,83,0.00,,,0.00,142,weatherlink.com 1.10,2013-04-10 22:22:00,
2013-04-10 17:38:00,28.3,24.0,30.11,NW,321,0.0,12.0,83,0.00,,,0.00,97,weatherlink.com 1.10,2013-04-10 22:38:00,
2013-04-10 17:53:00,28.1,23.0,30.11,WNW,284,0.0,14.0,82,0.00,,,0.00,97,weatherlink.com 1.10,2013-04-10 22:53:00,
2013-04-10 18:08:00,28.2,23.0,30.11,WNW,291,3.0,12.0,82,0.00,,,0.00,70,weatherlink.com 1.10,2013-04-10 23:08:00,
2013-04-10 18:23:00,28.2,24.0,30.11,WNW,297,0.0,10.0,84,0.00,,,0.00,56,weatherlink.com 1.10,2013-04-10 23:23:00,
2013-04-10 18:38:00,28.3,24.0,30.11,NW,313,4.0,9.0,84,0.00,,,0.00,62,weatherlink.com 1.10,2013-04-10 23:38:00,
2013-04-10 18:53:00,28.1,24.0,30.11,NW,309,0.0,12.0,85,0.00,,,0.00,37,weatherlink.com 1.10,2013-04-10 23:53:00,
2013-04-10 19:08:00,28.1,24.0,30.11,NW,317,1.0,14.0,84,0.00,,,0.00,28,weatherlink.com 1.10,2013-04-11 00:08:00,
2013-04-10 19:23:00,28.1,24.0,30.10,NNE,15,1.0,13.0,85,0.00,,,0.00,21,weatherlink.com 1.10,2013-04-11 00:23:00,
2013-04-10 19:53:00,28.1,24.0,30.11,NW,321,0.0,10.0,85,0.00,,,0.00,9,weatherlink.com 1.10,2013-04-11 00:53:00,
2013-04-10 20:08:00,27.9,24.0,30.10,North,355,0.0,13.0,84,0.00,,,0.00,0,weatherlink.com 1.10,2013-04-11 01:08:00,
2013-04-10 20:23:00,27.8,24.0,30.10,NNW,341,5.0,16.0,84,0.00,,,0.00,0,weatherlink.com 1.10,2013-04-11 01:23:00,
2013-04-10 20:38:00,27.6,23.0,30.11,NW,312,9.0,11.0,84,0.00,,,0.00,0,weatherlink.com 1.10,2013-04-11 01:38:00,
2013-04-10 20:53:00,27.5,23.0,30.10,NW,322,8.0,13.0,84,0.00,,,0.00,0,weatherlink.com 1.10,2013-04-11 01:53:00,
2013-04-10 21:08:00,27.3,23.0,30.11,NNW,342,8.0,10.0,83,0.00,,,0.00,0,weatherlink.com 1.10,2013-04-11 02:08:00,
2013-04-10 21:23:00,27.3,23.0,30.11,NNW,333,0.0,10.0,84,0.00,,,0.00,0,weatherlink.com 1.10,2013-04-11 02:23:00,
2013-04-10 21:38:00,27.3,23.0,30.12,WNW,294,3.0,12.0,84,0.00,,,0.00,0,weatherlink.com 1.10,2013-04-11 02:38:00,
2013-04-10 21:53:00,27.2,23.0,30.12,West,261,1.0,12.0,84,0.00,,,0.00,0,weatherlink.com 1.10,2013-04-11 02:53:00,
2013-04-10 22:38:00,26.7,22.0,30.13,West,272,0.0,13.0,83,0.00,,,0.00,0,weatherlink.com 1.10,2013-04-11 03:38:00,
2013-04-10 22:53:00,26.5,22.0,30.12,WNW,296,0.0,12.0,84,0.00,,,0.00,0,weatherlink.com 1.10,2013-04-11 03:53:00,
2013-04-10 23:08:00,26.0,22.0,30.13,NW,313,4.0,11.0,84,0.00,,,0.00,0,weatherlink.com 1.10,2013-04-11 04:08:00,
2013-04-10 23:23:00,25.2,21.0,30.12,NNW,328,0.0,11.0,84,0.00,,,0.00,0,weatherlink.com 1.10,2013-04-11 04:23:00,
2013-04-10 23:38:00,24.4,20.0,30.12,NW,324,0.0,8.0,84,0.00,,,0.00,0,weatherlink.com 1.10,2013-04-11 04:38:00,
2013-04-10 23:53:00,24.3,20.0,30.11,NNW,342,3.0,9.0,84,0.00,,,0.00,0,weatherlink.com 1.10,2013-04-11 04:53:00,